Time,TemperatureF,DewpointF,PressureIn,WindDirection,WindDirectionDegrees,WindSpeedMPH,WindSpeedGustMPH,Humidity,HourlyPrecipIn,Conditions,Clouds,dailyrainin,SoftwareType,DateUTC
2013-02-06 00:00:00,4.4,-0.9,30.10,North,-999,0.0,1.0,78,0.00,,,-99.99,WeatherLink 5.7,2013-02-06 06:00:00,
2013-02-06 00:30:00,3.3,-2.0,30.11,North,-999,0.0,0.0,78,0.00,,,-99.99,WeatherLink 5.7,2013-02-06 06:30:00,
2013-02-06 01:00:00,2.8,-2.5,30.11,North,-999,0.0,0.0,78,0.00,,,-99.99,WeatherLink 5.7,2013-02-06 07:00:00,
2013-02-06 01:30:00,2.4,-2.6,30.12,North,-999,0.0,0.0,79,0.00,,,-99.99,WeatherLink 5.7,2013-02-06 07:30:00,
2013-02-06 02:00:00,2.3,-2.7,30.13,North,-999,0.0,0.0,79,0.00,,,-99.99,WeatherLink 5.7,2013-02-06 08:00:00,
2013-02-06 02:30:00,2.7,-1.3,30.13,NE,45,0.0,3.0,83,0.00,,,-99.99,WeatherLink 5.7,2013-02-06 08:30:00,
2013-02-06 03:00:00,4.3,1.3,30.12,NE,45,0.0,2.0,87,0.00,,,-99.99,WeatherLink 5.7,2013-02-06 09:00:00,
2013-02-06 03:30:00,5.9,2.4,30.11,NE,45,0.0,2.0,85,0.00,,,-99.99,WeatherLink 5.7,2013-02-06 09:30:00,
2013-02-06 04:00:00,6.0,1.9,30.10,North,-999,0.0,0.0,83,0.00,,,-99.99,WeatherLink 5.7,2013-02-06 10:00:00,
2013-02-06 04:30:00,5.3,1.3,30.10,NE,45,0.0,2.0,83,0.00,,,-99.99,WeatherLink 5.7,2013-02-06 10:30:00,
2013-02-06 05:00:00,4.9,0.9,30.10,NE,45,0.0,2.0,83,0.00,,,-99.99,WeatherLink 5.7,2013-02-06 11:00:00,
2013-02-06 05:30:00,4.4,0.1,30.11,NE,45,0.0,1.0,82,0.00,,,-99.99,WeatherLink 5.7,2013-02-06 11:30:00,
2013-02-06 06:00:00,4.4,1.1,30.12,NE,45,1.0,3.0,86,0.00,,,-99.99,WeatherLink 5.7,2013-02-06 12:00:00,
2013-02-06 06:30:00,5.8,2.8,30.12,NE,45,1.0,3.0,87,0.00,,,-99.99,WeatherLink 5.7,2013-02-06 12:30:00,
2013-02-06 07:00:00,6.9,3.6,30.11,NE,45,1.0,3.0,86,0.00,,,-99.99,WeatherLink 5.7,2013-02-06 13:00:00,
2013-02-06 07:30:00,7.5,4.4,30.10,NE,45,1.0,3.0,87,0.00,,,-99.99,WeatherLink 5.7,2013-02-06 13:30:00,
2013-02-06 08:00:00,8.1,4.8,30.10,NE,45,1.0,3.0,86,0.00,,,-99.99,WeatherLink 5.7,2013-02-06 14:00:00,
2013-02-06 08:30:00,8.9,5.6,30.10,NE,45,1.0,3.0,86,0.00,,,-99.99,WeatherLink 5.7,2013-02-06 14:30:00,
2013-02-06 09:00:00,10.0,6.9,30.12,NE,45,1.0,3.0,87,0.00,,,-99.99,WeatherLink 5.7,2013-02-06 15:00:00,
2013-02-06 09:30:00,11.1,8.0,30.10,NE,45,1.0,3.0,87,0.00,,,-99.99,WeatherLink 5.7,2013-02-06 15:30:00,
2013-02-06 10:00:00,12.1,8.7,30.11,East,90,1.0,5.0,86,0.00,,,-99.99,WeatherLink 5.7,2013-02-06 16:00:00,
2013-02-06 10:30:00,13.2,10.1,30.10,East,90,1.0,3.0,87,0.00,,,-99.99,WeatherLink 5.7,2013-02-06 16:30:00,
2013-02-06 11:00:00,14.1,11.2,30.09,East,90,1.0,3.0,88,0.00,,,-99.99,WeatherLink 5.7,2013-02-06 17:00:00,
2013-02-06 11:30:00,14.8,11.9,30.08,East,90,1.0,5.0,88,0.00,,,-99.99,WeatherLink 5.7,2013-02-06 17:30:00,
2013-02-06 12:00:00,15.4,12.7,30.05,NE,45,1.0,3.0,89,0.00,,,-99.99,WeatherLink 5.7,2013-02-06 18:00:00,
2013-02-06 12:30:00,16.6,13.9,30.03,NE,45,2.0,6.0,89,0.00,,,-99.99,WeatherLink 5.7,2013-02-06 18:30:00,
2013-02-06 13:00:00,18.6,15.9,30.01,NNE,22,1.0,6.0,89,0.00,,,-99.99,WeatherLink 5.7,2013-02-06 19:00:00,
2013-02-06 13:30:00,20.2,17.0,30.00,NNE,22,1.0,6.0,87,0.00,,,-99.99,WeatherLink 5.7,2013-02-06 19:30:00,
2013-02-06 14:00:00,20.7,17.7,29.98,NNE,22,1.0,6.0,88,0.00,,,-99.99,WeatherLink 5.7,2013-02-06 20:00:00,
2013-02-06 14:30:00,21.0,18.0,29.98,North,0,1.0,6.0,88,0.00,,,-99.99,WeatherLink 5.7,2013-02-06 20:30:00,
2013-02-06 15:00:00,21.6,18.3,29.98,North,0,1.0,4.0,87,0.00,,,-99.99,WeatherLink 5.7,2013-02-06 21:00:00,
2013-02-06 15:30:00,22.0,18.2,29.98,NE,45,2.0,9.0,85,0.00,,,-99.99,WeatherLink 5.7,2013-02-06 21:30:00,
2013-02-06 16:00:00,21.7,17.6,29.97,NNE,22,2.0,7.0,84,0.00,,,-99.99,WeatherLink 5.7,2013-02-06 22:00:00,
2013-02-06 16:30:00,21.7,17.9,29.97,NE,45,1.0,5.0,85,0.00,,,-99.99,WeatherLink 5.7,2013-02-06 22:30:00,
2013-02-06 17:00:00,21.8,17.7,29.96,NNE,22,1.0,5.0,84,0.00,,,-99.99,WeatherLink 5.7,2013-02-06 23:00:00,
2013-02-06 17:30:00,21.6,18.1,29.97,NNE,22,1.0,4.0,86,0.00,,,-99.99,WeatherLink 5.7,2013-02-06 23:30:00,
2013-02-06 18:00:00,21.4,17.9,29.97,North,0,1.0,4.0,86,0.00,,,-99.99,WeatherLink 5.7,2013-02-07 00:00:00,
2013-02-06 18:30:00,21.2,17.7,29.97,North,0,1.0,5.0,86,0.00,,,-99.99,WeatherLink 5.7,2013-02-07 00:30:00,
2013-02-06 19:00:00,21.2,17.7,29.98,NNE,22,1.0,5.0,86,0.00,,,-99.99,WeatherLink 5.7,2013-02-07 01:00:00,
2013-02-06 19:30:00,21.2,17.9,29.98,North,0,1.0,4.0,87,0.00,,,-99.99,WeatherLink 5.7,2013-02-07 01:30:00,
2013-02-06 20:00:00,21.1,18.4,29.99,NE,45,0.0,3.0,89,0.00,,,-99.99,WeatherLink 5.7,2013-02-07 02:00:00,
2013-02-06 20:30:00,21.6,18.9,29.99,NNE,22,1.0,4.0,89,0.00,,,-99.99,WeatherLink 5.7,2013-02-07 02:30:00,
2013-02-06 21:00:00,22.4,19.4,29.99,North,0,1.0,6.0,88,0.00,,,-99.99,WeatherLink 5.7,2013-02-07 03:00:00,
2013-02-06 21:30:00,23.2,20.2,29.99,North,0,1.0,6.0,88,0.00,,,-99.99,WeatherLink 5.7,2013-02-07 03:30:00,
2013-02-06 22:00:00,23.6,20.6,30.00,NNE,22,1.0,5.0,88,0.00,,,-99.99,WeatherLink 5.7,2013-02-07 04:00:00,
2013-02-06 22:30:00,23.8,20.5,30.00,NNE,22,1.0,4.0,87,0.00,,,-99.99,WeatherLink 5.7,2013-02-07 04:30:00,
2013-02-06 23:00:00,23.7,20.4,30.00,NNE,22,0.0,3.0,87,0.00,,,-99.99,WeatherLink 5.7,2013-02-07 05:00:00,
2013-02-06 23:30:00,23.5,20.7,30.00,NNE,22,0.0,3.0,89,0.00,,,-99.99,WeatherLink 5.7,2013-02-07 05:30:00,